Location: Franzen
(48.6167°N, 15.3833°E)
Time: 20:53:45
(UTC+00:00)

Cosmos 1709 Rocket - Pass Details

Date: 02 August 2021
Orbit: 947 x 1002 km, 82.9° (Epoch: 22 September)

Event Time Altitude Azimuth Distance (km) Brightness Sun altitude
Exits shadow 22:11:13 31° 118° (ESE) 1,675 4.9 -22.8°
Maximum altitude 22:12:55 36° 87° (E) 1,531 4.9 -22.9°
Drops below altitude 10° 22:18:38 10° 23° (NNE) 2,786 7.1 -23.1°
Sets 22:21:22 0° 16° (NNE) 3,741 8.1 -23.2°
